Location: Penum?ka
(16.4840°N, 80.5772°E)
Time: 02:05:33
(UTC+00:00)

GMS 1 Rocket B - Pass Details

Date: 19 May 2025
Orbit: 528 x 1800 km, 29.1° (Epoch: 23 June)

Event Time Altitude Azimuth Distance (km) Brightness Sun altitude
Rises 13:44:47 0° 237° (WSW) 2,734 8.4 -10.2°
Reaches altitude 10° 13:47:06 10° 234° (SW) 1,782 7.3 -10.7°
Maximum altitude 13:51:00 63° 153° (SSE) 586 4.2 -11.5°
Drops below altitude 10° 13:55:00 10° 71° (ENE) 1,827 6.6 -12.4°
Enters shadow 13:55:04 10° 71° (ENE) 1,849 6.6 -12.4°
